Time,TemperatureF,DewpointF,PressureIn,WindDirection,WindDirectionDegrees,WindSpeedMPH,WindSpeedGustMPH,Humidity,HourlyPrecipIn,Conditions,Clouds,dailyrainin,SoftwareType,DateUTC
2013-01-04 00:02:00,31.0,28.7,30.24,NNW,338,0.0,0.0,91,0.00,,---,0.00,VWS V14.01,2013-01-04 05:02:00,
2013-01-04 00:03:00,31.0,28.7,30.24,NNW,338,0.0,0.0,91,0.00,,---,0.00,VWS V14.01,2013-01-04 05:03:00,
2013-01-04 00:04:00,30.8,28.5,30.24,NNW,338,0.0,0.0,91,0.00,,---,0.00,VWS V14.01,2013-01-04 05:04:00,
2013-01-04 00:09:00,30.8,28.5,30.24,NNW,338,0.0,0.0,91,0.00,,---,0.00,VWS V14.01,2013-01-04 05:09:00,
2013-01-04 00:14:00,30.7,28.4,30.24,NNW,338,0.0,0.0,91,0.00,,---,0.00,VWS V14.01,2013-01-04 05:14:00,
2013-01-04 00:19:00,30.5,28.2,30.23,NNW,338,0.0,0.0,91,0.00,,---,0.00,VWS V14.01,2013-01-04 05:19:00,
2013-01-04 00:24:00,30.5,28.2,30.24,NNW,338,0.0,0.0,91,0.00,,---,0.00,VWS V14.01,2013-01-04 05:24:00,
2013-01-04 00:29:00,30.3,28.0,30.24,NNW,338,0.0,0.0,91,0.00,,---,0.00,VWS V14.01,2013-01-04 05:29:00,
2013-01-04 00:34:00,30.1,27.8,30.24,NNW,338,0.0,0.0,91,0.00,,---,0.00,VWS V14.01,2013-01-04 05:34:00,
2013-01-04 00:39:00,30.1,27.8,30.24,NNW,338,0.0,0.0,91,0.00,,---,0.00,VWS V14.01,2013-01-04 05:39:00,
2013-01-04 00:44:00,29.9,27.6,30.24,NNW,338,0.0,0.0,91,0.00,,---,0.00,VWS V14.01,2013-01-04 05:44:00,
2013-01-04 00:49:00,29.8,27.5,30.24,NNW,338,0.0,0.0,91,0.00,,---,0.00,VWS V14.01,2013-01-04 05:49:00,
2013-01-04 00:54:00,29.8,27.5,30.24,NNW,338,0.0,0.0,91,0.00,,---,0.00,VWS V14.01,2013-01-04 05:54:00,
2013-01-04 00:59:00,29.6,27.3,30.24,NNW,338,0.0,0.0,91,0.00,,---,0.00,VWS V14.01,2013-01-04 05:59:00,
2013-01-04 01:04:00,29.6,27.3,30.24,NNW,338,0.0,0.0,91,0.00,,---,0.00,VWS V14.01,2013-01-04 06:04:00,
2013-01-04 01:09:00,29.6,27.3,30.23,NNW,338,0.0,0.0,91,0.00,,---,0.00,VWS V14.01,2013-01-04 06:09:00,
2013-01-04 01:14:00,29.4,27.1,30.24,NNW,338,0.0,0.0,91,0.00,,---,0.00,VWS V14.01,2013-01-04 06:14:00,
2013-01-04 01:19:00,29.4,27.1,30.23,NNW,338,0.0,0.0,91,0.00,,---,0.00,VWS V14.01,2013-01-04 06:19:00,
2013-01-04 01:24:00,29.4,27.4,30.24,NNW,338,0.0,0.0,92,0.00,,---,0.00,VWS V14.01,2013-01-04 06:24:00,
2013-01-04 01:29:00,29.4,27.4,30.24,NNW,338,0.0,0.0,92,0.00,,---,0.00,VWS V14.01,2013-01-04 06:29:00,
2013-01-04 01:34:00,29.4,27.4,30.24,NNW,338,0.0,0.0,92,0.00,,---,0.00,VWS V14.01,2013-01-04 06:34:00,
2013-01-04 01:39:00,29.2,27.2,30.24,NNW,338,0.0,0.0,92,0.00,,---,0.00,VWS V14.01,2013-01-04 06:39:00,
2013-01-04 01:44:00,29.0,27.0,30.24,NNW,338,0.0,0.0,92,0.00,,---,0.00,VWS V14.01,2013-01-04 06:44:00,
2013-01-04 01:49:00,29.0,27.0,30.24,NNW,338,0.0,0.0,92,0.00,,---,0.00,VWS V14.01,2013-01-04 06:49:00,
2013-01-04 01:54:00,29.0,27.0,30.24,NNW,338,0.0,0.0,92,0.00,,---,0.00,VWS V14.01,2013-01-04 06:54:00,
2013-01-04 01:59:00,28.9,26.9,30.24,NNW,338,0.0,0.0,92,0.00,,---,0.00,VWS V14.01,2013-01-04 06:59:00,
2013-01-04 02:04:00,28.7,26.7,30.24,NNW,338,0.0,0.0,92,0.00,,---,0.00,VWS V14.01,2013-01-04 07:04:00,
2013-01-04 02:09:00,28.7,26.7,30.24,NNW,338,0.0,0.0,92,0.00,,---,0.00,VWS V14.01,2013-01-04 07:09:00,
2013-01-04 02:14:00,28.7,26.7,30.24,NNW,338,0.0,0.0,92,0.00,,---,0.00,VWS V14.01,2013-01-04 07:14:00,
2013-01-04 02:19:00,28.5,26.5,30.24,NNW,338,0.0,0.0,92,0.00,,---,0.00,VWS V14.01,2013-01-04 07:19:00,
2013-01-04 02:24:00,28.5,26.5,30.24,NNW,338,0.0,0.0,92,0.00,,---,0.00,VWS V14.01,2013-01-04 07:24:00,
2013-01-04 02:29:00,28.5,26.5,30.24,NNW,338,0.0,0.0,92,0.00,,---,0.00,VWS V14.01,2013-01-04 07:29:00,
2013-01-04 02:34:00,28.3,26.3,30.25,NNW,338,0.0,0.0,92,0.00,,---,0.00,VWS V14.01,2013-01-04 07:34:00,
2013-01-04 02:39:00,28.3,26.3,30.25,NNW,338,0.0,0.0,92,0.00,,---,0.00,VWS V14.01,2013-01-04 07:39:00,
2013-01-04 02:44:00,28.3,26.3,30.25,NNW,338,0.0,0.0,92,0.00,,---,0.00,VWS V14.01,2013-01-04 07:44:00,
2013-01-04 02:49:00,28.3,26.3,30.25,NNW,338,0.0,0.0,92,0.00,,---,0.00,VWS V14.01,2013-01-04 07:49:00,
2013-01-04 02:54:00,28.3,26.3,30.25,NNW,338,0.0,0.0,92,0.00,,---,0.00,VWS V14.01,2013-01-04 07:54:00,
2013-01-04 02:59:00,28.1,26.1,30.25,NNW,338,0.0,0.0,92,0.00,,---,0.00,VWS V14.01,2013-01-04 07:59:00,
2013-01-04 03:04:00,28.1,26.4,30.25,NNW,338,0.0,0.0,93,0.00,,---,0.00,VWS V14.01,2013-01-04 08:04:00,
2013-01-04 03:09:00,28.1,26.4,30.25,NNW,338,0.0,0.0,93,0.00,,---,0.00,VWS V14.01,2013-01-04 08:09:00,
2013-01-04 03:14:00,28.3,26.5,30.25,NNW,338,0.0,0.0,93,0.00,,---,0.00,VWS V14.01,2013-01-04 08:14:00,
2013-01-04 03:19:00,28.1,26.4,30.26,NNW,338,0.0,0.0,93,0.00,,---,0.00,VWS V14.01,2013-01-04 08:19:00,
2013-01-04 03:24:00,28.1,26.4,30.25,NNW,338,0.0,0.0,93,0.00,,---,0.00,VWS V14.01,2013-01-04 08:24:00,
2013-01-04 03:29:00,28.1,26.4,30.25,NNW,338,0.0,0.0,93,0.00,,---,0.00,VWS V14.01,2013-01-04 08:29:00,
2013-01-04 03:35:00,28.0,26.3,30.26,NNW,338,0.0,0.0,93,0.00,,---,0.00,VWS V14.01,2013-01-04 08:35:00,
2013-01-04 03:39:00,28.0,26.3,30.26,NNW,338,0.0,0.0,93,0.00,,---,0.00,VWS V14.01,2013-01-04 08:39:00,
2013-01-04 03:44:00,28.0,26.3,30.26,NNW,338,0.0,0.0,93,0.00,,---,0.00,VWS V14.01,2013-01-04 08:44:00,
2013-01-04 03:50:00,28.0,26.3,30.26,NNW,338,0.0,0.0,93,0.00,,---,0.00,VWS V14.01,2013-01-04 08:50:00,
2013-01-04 03:55:00,28.0,26.3,30.25,NNW,338,0.0,0.0,93,0.00,,---,0.00,VWS V14.01,2013-01-04 08:55:00,
2013-01-04 04:00:00,28.0,26.3,30.25,NNW,338,0.0,0.0,93,0.00,,---,0.00,VWS V14.01,2013-01-04 09:00:00,
2013-01-04 04:05:00,28.0,26.3,30.25,NNW,338,0.0,0.0,93,0.00,,---,0.00,VWS V14.01,2013-01-04 09:05:00,
2013-01-04 04:10:00,28.0,26.3,30.25,NNW,338,0.0,0.0,93,0.00,,---,0.00,VWS V14.01,2013-01-04 09:10:00,
2013-01-04 04:15:00,28.0,26.3,30.25,NNW,338,0.0,0.0,93,0.00,,---,0.00,VWS V14.01,2013-01-04 09:15:00,
2013-01-04 04:20:00,28.0,26.3,30.25,NNW,338,0.0,0.0,93,0.00,,---,0.00,VWS V14.01,2013-01-04 09:20:00,
2013-01-04 04:25:00,27.8,26.1,30.25,NNW,338,0.0,0.0,93,0.00,,---,0.00,VWS V14.01,2013-01-04 09:25:00,
2013-01-04 04:30:00,28.0,26.3,30.24,NNW,338,0.0,0.0,93,0.00,,---,0.00,VWS V14.01,2013-01-04 09:30:00,
2013-01-04 04:35:00,28.0,26.3,30.24,NNW,338,0.0,0.0,93,0.00,,---,0.00,VWS V14.01,2013-01-04 09:35:00,
2013-01-04 04:40:00,27.8,26.1,30.24,NNW,338,0.0,0.0,93,0.00,,---,0.00,VWS V14.01,2013-01-04 09:40:00,
2013-01-04 04:45:00,27.8,26.1,30.25,NNW,338,0.0,0.0,93,0.00,,---,0.00,VWS V14.01,2013-01-04 09:45:00,
2013-01-04 04:50:00,27.6,25.9,30.25,NNW,338,0.0,0.0,93,0.00,,---,0.00,VWS V14.01,2013-01-04 09:50:00,
2013-01-04 04:55:00,27.4,25.7,30.25,NNW,338,0.0,0.0,93,0.00,,---,0.00,VWS V14.01,2013-01-04 09:55:00,
2013-01-04 05:00:00,27.4,25.7,30.25,NNW,338,0.0,0.0,93,0.00,,---,0.00,VWS V14.01,2013-01-04 10:00:00,
2013-01-04 05:05:00,27.4,25.7,30.25,NNW,338,0.0,0.0,93,0.00,,---,0.00,VWS V14.01,2013-01-04 10:05:00,
2013-01-04 05:10:00,27.4,25.7,30.25,NNW,338,0.0,0.0,93,0.00,,---,0.00,VWS V14.01,2013-01-04 10:10:00,
2013-01-04 05:15:00,27.4,25.7,30.25,NNW,338,0.0,0.0,93,0.00,,---,0.00,VWS V14.01,2013-01-04 10:15:00,
2013-01-04 05:20:00,27.4,25.7,30.25,NNW,338,0.0,0.0,93,0.00,,---,0.00,VWS V14.01,2013-01-04 10:20:00,
2013-01-04 05:25:00,27.4,25.7,30.25,NNW,338,0.0,0.0,93,0.00,,---,0.00,VWS V14.01,2013-01-04 10:25:00,
2013-01-04 05:30:00,27.2,25.5,30.25,NNW,338,0.0,0.0,93,0.00,,---,0.00,VWS V14.01,2013-01-04 10:30:00,
2013-01-04 05:35:00,27.2,25.5,30.26,NNW,338,0.0,0.0,93,0.00,,---,0.00,VWS V14.01,2013-01-04 10:35:00,
2013-01-04 05:40:00,27.2,25.5,30.26,NNW,338,0.0,0.0,93,0.00,,---,0.00,VWS V14.01,2013-01-04 10:40:00,
2013-01-04 05:45:00,27.2,25.5,30.26,NNW,338,0.0,0.0,93,0.00,,---,0.00,VWS V14.01,2013-01-04 10:45:00,
2013-01-04 05:50:00,27.2,25.5,30.26,NNW,338,0.0,0.0,93,0.00,,---,0.00,VWS V14.01,2013-01-04 10:50:00,
2013-01-04 05:55:00,27.2,25.5,30.26,NNW,338,0.0,0.0,93,0.00,,---,0.00,VWS V14.01,2013-01-04 10:55:00,
2013-01-04 06:00:00,27.1,25.4,30.27,NNW,338,0.0,0.0,93,0.00,,---,0.00,VWS V14.01,2013-01-04 11:00:00,
2013-01-04 06:05:00,27.1,25.4,30.26,NNW,338,0.0,0.0,93,0.00,,---,0.00,VWS V14.01,2013-01-04 11:05:00,
2013-01-04 06:10:00,27.1,25.4,30.26,NNW,338,0.0,0.0,93,0.00,,---,0.00,VWS V14.01,2013-01-04 11:10:00,
2013-01-04 06:15:00,26.9,25.2,30.26,NNW,338,0.0,0.0,93,0.00,,---,0.00,VWS V14.01,2013-01-04 11:15:00,
2013-01-04 06:20:00,26.9,25.2,30.26,NNW,338,0.0,0.0,93,0.00,,---,0.00,VWS V14.01,2013-01-04 11:20:00,
2013-01-04 06:25:00,26.9,25.2,30.26,NNW,338,0.0,0.0,93,0.00,,---,0.00,VWS V14.01,2013-01-04 11:25:00,
2013-01-04 06:30:00,27.1,25.4,30.26,NNW,338,0.0,0.0,93,0.00,,---,0.00,VWS V14.01,2013-01-04 11:30:00,
2013-01-04 06:35:00,27.1,25.6,30.26,NNW,338,0.0,0.0,94,0.00,,---,0.00,VWS V14.01,2013-01-04 11:35:00,
2013-01-04 06:40:00,27.1,25.6,30.26,NNW,338,0.0,0.0,94,0.00,,---,0.00,VWS V14.01,2013-01-04 11:40:00,
2013-01-04 06:45:00,27.1,25.6,30.27,NNW,338,0.0,0.0,94,0.00,,---,0.00,VWS V14.01,2013-01-04 11:45:00,
2013-01-04 06:50:00,27.1,25.6,30.27,NNW,338,0.0,0.0,94,0.00,,---,0.00,VWS V14.01,2013-01-04 11:50:00,
2013-01-04 06:55:00,27.1,25.6,30.27,NNW,338,0.0,0.0,94,0.00,,---,0.00,VWS V14.01,2013-01-04 11:55:00,
2013-01-04 07:00:00,27.1,25.6,30.27,NNW,338,0.0,0.0,94,0.00,,---,0.00,VWS V14.01,2013-01-04 12:00:00,
2013-01-04 07:05:00,26.9,25.4,30.27,NNW,338,0.0,0.0,94,0.00,,---,0.00,VWS V14.01,2013-01-04 12:05:00,
2013-01-04 07:10:00,26.9,25.4,30.27,NNW,338,0.0,0.0,94,0.00,,---,0.00,VWS V14.01,2013-01-04 12:10:00,
2013-01-04 07:15:00,26.7,25.2,30.27,NNW,338,0.0,0.0,94,0.00,,---,0.00,VWS V14.01,2013-01-04 12:15:00,
2013-01-04 07:20:00,26.7,25.0,30.27,NNW,338,0.0,0.0,93,0.00,,---,0.00,VWS V14.01,2013-01-04 12:20:00,
2013-01-04 07:25:00,26.5,24.5,30.27,NNW,338,0.0,0.0,92,0.00,,---,0.00,VWS V14.01,2013-01-04 12:25:00,
2013-01-04 07:30:00,26.3,24.3,30.28,NNW,338,0.0,0.0,92,0.00,,---,0.00,VWS V14.01,2013-01-04 12:30:00,
2013-01-04 07:35:00,26.3,24.3,30.28,NNW,338,0.0,0.0,92,0.00,,---,0.00,VWS V14.01,2013-01-04 12:35:00,
2013-01-04 07:40:00,26.5,24.8,30.28,NNW,338,0.0,0.0,93,0.00,,---,0.00,VWS V14.01,2013-01-04 12:40:00,
2013-01-04 07:45:00,26.5,24.8,30.28,NNW,338,0.0,0.0,93,0.00,,---,0.00,VWS V14.01,2013-01-04 12:45:00,
2013-01-04 07:50:00,26.7,25.2,30.28,NNW,338,0.0,0.0,94,0.00,,---,0.00,VWS V14.01,2013-01-04 12:50:00,
2013-01-04 07:55:00,26.9,25.4,30.28,NNW,338,0.0,0.0,94,0.00,,---,0.00,VWS V14.01,2013-01-04 12:55:00,
2013-01-04 08:00:00,26.9,25.4,30.28,NNW,338,0.0,0.0,94,0.00,,---,0.00,VWS V14.01,2013-01-04 13:00:00,
2013-01-04 08:05:00,27.1,25.6,30.28,NNW,338,0.0,0.0,94,0.00,,---,0.00,VWS V14.01,2013-01-04 13:05:00,
2013-01-04 08:10:00,27.2,25.7,30.28,NNW,338,0.0,0.0,94,0.00,,---,0.00,VWS V14.01,2013-01-04 13:10:00,
2013-01-04 08:15:00,27.4,25.9,30.28,NNW,338,0.0,0.0,94,0.00,,---,0.00,VWS V14.01,2013-01-04 13:15:00,
2013-01-04 08:20:00,28.1,26.6,30.28,NNW,338,0.0,0.0,94,0.00,,---,0.00,VWS V14.01,2013-01-04 13:20:00,
2013-01-04 08:25:00,28.9,27.4,30.28,NNW,338,0.0,0.0,94,0.00,,---,0.00,VWS V14.01,2013-01-04 13:25:00,
2013-01-04 08:30:00,29.9,28.4,30.29,NNW,338,0.0,0.0,94,0.00,,---,0.00,VWS V14.01,2013-01-04 13:30:00,
2013-01-04 08:35:00,31.2,29.7,30.29,NNW,338,0.0,0.0,94,0.00,,---,0.00,VWS V14.01,2013-01-04 13:35:00,
2013-01-04 08:40:00,31.7,30.1,30.29,NNW,338,0.0,0.0,94,0.00,,---,0.00,VWS V14.01,2013-01-04 13:40:00,
2013-01-04 08:45:00,32.5,30.9,30.29,NNW,338,0.0,0.0,94,0.00,,---,0.00,VWS V14.01,2013-01-04 13:45:00,
2013-01-04 08:50:00,32.8,31.5,30.29,NNW,338,0.7,0.8,95,0.00,,---,0.00,VWS V14.01,2013-01-04 13:50:00,
2013-01-04 08:55:00,33.2,31.9,30.29,NW,315,0.7,0.8,95,0.00,,---,0.00,VWS V14.01,2013-01-04 13:55:00,
2013-01-04 09:00:00,33.7,32.4,30.30,NW,315,0.0,0.0,95,0.00,,---,0.00,VWS V14.01,2013-01-04 14:00:00,
2013-01-04 09:05:00,34.3,33.1,30.30,WNW,292,1.8,2.7,95,0.00,,---,0.00,VWS V14.01,2013-01-04 14:05:00,
2013-01-04 09:11:00,35.2,34.0,30.30,WNW,292,0.0,0.8,95,0.00,,---,0.00,VWS V14.01,2013-01-04 14:11:00,
2013-01-04 09:16:00,36.0,34.8,30.30,WSW,248,0.3,0.4,95,0.00,,---,0.00,VWS V14.01,2013-01-04 14:16:00,
2013-01-04 09:21:00,36.7,35.2,30.30,NNW,338,1.5,5.1,94,0.00,,---,0.00,VWS V14.01,2013-01-04 14:21:00,
2013-01-04 09:26:00,37.4,35.9,30.30,WNW,292,2.1,2.7,94,0.00,,---,0.00,VWS V14.01,2013-01-04 14:26:00,
2013-01-04 09:31:00,37.9,35.8,30.30,NNW,338,0.7,1.8,92,0.00,,---,0.00,VWS V14.01,2013-01-04 14:31:00,
2013-01-04 09:36:00,38.7,36.6,30.31,NW,315,1.8,2.3,92,0.00,,---,0.00,VWS V14.01,2013-01-04 14:36:00,
2013-01-04 09:41:00,39.2,36.8,30.31,NNW,338,0.7,2.7,91,0.00,,---,0.00,VWS V14.01,2013-01-04 14:41:00,
2013-01-04 09:46:00,39.9,36.1,30.31,NNW,338,5.6,7.0,86,0.00,,---,0.00,VWS V14.01,2013-01-04 14:46:00,
2013-01-04 09:51:00,40.5,36.9,30.31,NNW,338,1.2,1.8,87,0.00,,---,0.00,VWS V14.01,2013-01-04 14:51:00,
2013-01-04 09:56:00,40.6,36.1,30.31,NNW,338,4.5,5.5,84,0.00,,---,0.00,VWS V14.01,2013-01-04 14:56:00,
2013-01-04 10:01:00,41.0,36.5,30.31,NNW,338,2.6,3.3,84,0.00,,---,0.00,VWS V14.01,2013-01-04 15:01:00,
2013-01-04 10:06:00,41.4,36.6,30.31,WNW,292,3.0,3.7,83,0.00,,---,0.00,VWS V14.01,2013-01-04 15:06:00,
2013-01-04 10:11:00,41.7,36.6,30.31,NNW,338,1.8,2.3,82,0.00,,---,0.00,VWS V14.01,2013-01-04 15:11:00,
2013-01-04 10:16:00,42.3,36.5,30.31,North,0,0.7,1.8,80,0.00,,---,0.00,VWS V14.01,2013-01-04 15:16:00,
2013-01-04 10:21:00,42.8,35.4,30.31,WSW,248,0.7,0.8,75,0.00,,---,0.00,VWS V14.01,2013-01-04 15:21:00,
2013-01-04 10:26:00,43.5,37.4,30.31,NNW,338,0.7,2.3,79,0.00,,---,0.00,VWS V14.01,2013-01-04 15:26:00,
2013-01-04 10:31:00,44.1,37.3,30.31,NW,315,1.8,4.5,77,0.00,,---,0.00,VWS V14.01,2013-01-04 15:31:00,
2013-01-04 10:36:00,44.3,37.6,30.31,North,0,2.6,3.3,77,0.00,,---,0.00,VWS V14.01,2013-01-04 15:36:00,
2013-01-04 10:41:00,45.0,37.2,30.31,NW,315,5.9,7.4,74,0.00,,---,0.00,VWS V14.01,2013-01-04 15:41:00,
2013-01-04 10:46:00,45.0,36.9,30.30,NNW,338,1.8,5.1,73,0.00,,---,0.00,VWS V14.01,2013-01-04 15:46:00,
2013-01-04 10:51:00,45.4,37.7,30.30,North,0,3.0,3.7,74,0.00,,---,0.00,VWS V14.01,2013-01-04 15:51:00,
2013-01-04 10:56:00,45.9,37.4,30.30,NNW,338,2.1,2.7,72,0.00,,---,0.00,VWS V14.01,2013-01-04 15:56:00,
2013-01-04 11:01:00,46.3,36.4,30.30,West,270,1.8,3.3,68,0.00,,---,0.00,VWS V14.01,2013-01-04 16:01:00,
2013-01-04 11:06:00,46.7,36.7,30.29,North,0,2.1,3.7,68,0.00,,---,0.00,VWS V14.01,2013-01-04 16:06:00,
2013-01-04 11:11:00,47.4,38.1,30.29,WNW,292,0.7,1.8,70,0.00,,---,0.00,VWS V14.01,2013-01-04 16:11:00,
2013-01-04 11:16:00,47.6,34.4,30.29,West,270,4.5,7.0,60,0.00,,---,0.00,VWS V14.01,2013-01-04 16:16:00,
2013-01-04 11:21:00,47.7,37.7,30.29,North,0,2.1,3.7,68,0.00,,---,0.00,VWS V14.01,2013-01-04 16:21:00,
2013-01-04 11:26:00,48.1,36.9,30.29,NNW,338,1.8,8.2,65,0.00,,---,0.00,VWS V14.01,2013-01-04 16:26:00,
2013-01-04 11:31:00,48.3,37.1,30.29,WSW,248,3.3,4.1,65,0.00,,---,0.00,VWS V14.01,2013-01-04 16:31:00,
2013-01-04 11:36:00,48.3,35.5,30.28,NW,315,3.0,3.7,61,0.00,,---,0.00,VWS V14.01,2013-01-04 16:36:00,
2013-01-04 11:41:00,48.5,34.4,30.28,WNW,292,4.1,5.1,58,0.00,,---,0.00,VWS V14.01,2013-01-04 16:41:00,
2013-01-04 11:46:00,48.6,35.4,30.27,NNE,22,1.2,5.9,60,0.00,,---,0.00,VWS V14.01,2013-01-04 16:46:00,
2013-01-04 11:51:00,48.8,33.8,30.27,WNW,292,7.1,8.8,56,0.00,,---,0.00,VWS V14.01,2013-01-04 16:51:00,
2013-01-04 11:56:00,48.8,34.3,30.27,WSW,248,5.6,7.0,57,0.00,,---,0.00,VWS V14.01,2013-01-04 16:56:00,
2013-01-04 12:01:00,49.5,37.4,30.26,NNW,338,2.1,3.7,63,0.00,,---,0.00,VWS V14.01,2013-01-04 17:01:00,
2013-01-04 12:06:00,49.9,33.9,30.26,WNW,292,4.1,10.0,54,0.00,,---,0.00,VWS V14.01,2013-01-04 17:06:00,
2013-01-04 12:11:00,49.9,36.2,30.26,North,0,5.9,9.2,59,0.00,,---,0.00,VWS V14.01,2013-01-04 17:11:00,
2013-01-04 12:16:00,49.5,34.9,30.26,North,0,3.0,4.5,57,0.00,,---,0.00,VWS V14.01,2013-01-04 17:16:00,
2013-01-04 12:21:00,50.1,36.3,30.26,SSW,202,2.1,2.7,59,0.00,,---,0.00,VWS V14.01,2013-01-04 17:21:00,
2013-01-04 12:26:00,49.9,35.7,30.25,North,0,4.1,5.1,58,0.00,,---,0.00,VWS V14.01,2013-01-04 17:26:00,
2013-01-04 12:31:00,50.1,35.9,30.25,NNW,338,1.5,1.8,58,0.00,,---,0.00,VWS V14.01,2013-01-04 17:31:00,
2013-01-04 12:36:00,50.6,36.8,30.24,North,0,2.6,3.3,59,0.00,,---,0.00,VWS V14.01,2013-01-04 17:36:00,
2013-01-04 12:41:00,51.3,37.0,30.24,NNW,338,0.7,0.8,58,0.00,,---,0.00,VWS V14.01,2013-01-04 17:41:00,
2013-01-04 12:46:00,51.7,33.7,30.24,WNW,292,2.6,8.8,50,0.00,,---,0.00,VWS V14.01,2013-01-04 17:46:00,
2013-01-04 12:51:00,51.9,37.1,30.24,NW,315,3.0,3.7,57,0.00,,---,0.00,VWS V14.01,2013-01-04 17:51:00,
2013-01-04 12:56:00,52.1,34.0,30.23,WSW,248,3.3,5.9,50,0.00,,---,0.00,VWS V14.01,2013-01-04 17:56:00,
2013-01-04 13:01:00,51.9,32.8,30.22,NW,315,5.6,7.0,48,0.00,,---,0.00,VWS V14.01,2013-01-04 18:01:00,
2013-01-04 13:06:00,52.4,36.7,30.22,NNW,338,1.5,5.1,55,0.00,,---,0.00,VWS V14.01,2013-01-04 18:06:00,
2013-01-04 13:11:00,53.1,35.4,30.22,West,270,4.8,5.9,51,0.00,,---,0.00,VWS V14.01,2013-01-04 18:11:00,
2013-01-04 13:16:00,53.1,34.4,30.21,NW,315,5.9,7.4,49,0.00,,---,0.00,VWS V14.01,2013-01-04 18:16:00,
2013-01-04 13:21:00,53.1,34.4,30.21,West,270,3.0,3.7,49,0.00,,---,0.00,VWS V14.01,2013-01-04 18:21:00,
2013-01-04 13:26:00,53.1,35.9,30.21,NNE,22,4.8,5.9,52,0.00,,---,0.00,VWS V14.01,2013-01-04 18:26:00,
2013-01-04 13:31:00,53.1,33.9,30.21,WNW,292,3.0,3.7,48,0.00,,---,0.00,VWS V14.01,2013-01-04 18:31:00,
2013-01-04 13:36:00,53.0,33.8,30.21,West,270,1.8,2.3,48,0.00,,---,0.00,VWS V14.01,2013-01-04 18:36:00,
2013-01-04 13:41:00,52.8,33.6,30.21,NNE,22,5.6,7.0,48,0.00,,---,0.00,VWS V14.01,2013-01-04 18:41:00,
2013-01-04 13:46:00,52.1,32.5,30.21,NW,315,5.9,7.4,47,0.00,,---,0.00,VWS V14.01,2013-01-04 18:46:00,
2013-01-04 13:51:00,52.4,33.8,30.21,NNE,22,4.1,5.1,49,0.00,,---,0.00,VWS V14.01,2013-01-04 18:51:00,
2013-01-04 13:56:00,52.8,34.2,30.21,NW,315,6.6,8.2,49,0.00,,---,0.00,VWS V14.01,2013-01-04 18:56:00,
2013-01-04 14:01:00,52.4,33.3,30.21,WNW,292,3.0,7.0,48,0.00,,---,0.00,VWS V14.01,2013-01-04 19:01:00,
2013-01-04 14:06:00,52.4,33.3,30.21,WNW,292,3.0,3.7,48,0.00,,---,0.00,VWS V14.01,2013-01-04 19:06:00,
2013-01-04 14:11:00,52.8,32.6,30.21,West,270,5.6,7.0,46,0.00,,---,0.00,VWS V14.01,2013-01-04 19:11:00,
2013-01-04 14:16:00,52.4,32.2,30.20,NW,315,3.0,3.7,46,0.00,,---,0.00,VWS V14.01,2013-01-04 19:16:00,
2013-01-04 14:21:00,53.1,32.8,30.20,North,0,1.8,3.7,46,0.00,,---,0.00,VWS V14.01,2013-01-04 19:21:00,
2013-01-04 14:26:00,53.3,33.6,30.20,North,0,4.8,5.9,47,0.00,,---,0.00,VWS V14.01,2013-01-04 19:26:00,
2013-01-04 14:31:00,53.1,34.4,30.20,WNW,292,4.1,5.1,49,0.00,,---,0.00,VWS V14.01,2013-01-04 19:31:00,
2013-01-04 14:36:00,53.7,35.5,30.20,NW,315,2.1,2.7,50,0.00,,---,0.00,VWS V14.01,2013-01-04 19:36:00,
2013-01-04 14:41:00,54.0,33.7,30.20,NW,315,7.8,9.6,46,0.00,,---,0.00,VWS V14.01,2013-01-04 19:41:00,
2013-01-04 14:46:00,54.2,35.9,30.20,NW,315,0.3,0.4,50,0.00,,---,0.00,VWS V14.01,2013-01-04 19:46:00,
2013-01-04 14:51:00,54.0,34.2,30.20,NNW,338,4.1,5.1,47,0.00,,---,0.00,VWS V14.01,2013-01-04 19:51:00,
2013-01-04 14:56:00,53.7,33.9,30.20,NW,315,5.1,6.4,47,0.00,,---,0.00,VWS V14.01,2013-01-04 19:56:00,
2013-01-04 15:01:00,54.0,35.2,30.20,West,270,3.6,4.5,49,0.00,,---,0.00,VWS V14.01,2013-01-04 20:01:00,
2013-01-04 15:06:00,54.5,36.3,30.20,North,0,1.2,1.4,50,0.00,,---,0.00,VWS V14.01,2013-01-04 20:06:00,
2013-01-04 15:11:00,54.8,36.1,30.20,WNW,292,3.0,3.7,49,0.00,,---,0.00,VWS V14.01,2013-01-04 20:11:00,
2013-01-04 15:16:00,54.8,35.5,30.20,NNW,338,3.0,3.7,48,0.00,,---,0.00,VWS V14.01,2013-01-04 20:16:00,
2013-01-04 15:21:00,54.8,35.5,30.20,NW,315,4.1,5.1,48,0.00,,---,0.00,VWS V14.01,2013-01-04 20:21:00,
2013-01-04 15:26:00,55.2,36.4,30.19,West,270,2.6,5.1,49,0.00,,---,0.00,VWS V14.01,2013-01-04 20:26:00,
2013-01-04 15:31:00,55.6,36.3,30.20,NW,315,2.1,2.7,48,0.00,,---,0.00,VWS V14.01,2013-01-04 20:31:00,
2013-01-04 15:36:00,55.6,35.2,30.20,WSW,248,1.2,1.4,46,0.00,,---,0.00,VWS V14.01,2013-01-04 20:36:00,
2013-01-04 15:41:00,55.4,35.6,30.20,WNW,292,1.5,1.8,47,0.00,,---,0.00,VWS V14.01,2013-01-04 20:41:00,
2013-01-04 15:46:00,54.8,34.5,30.20,North,0,3.0,3.7,46,0.00,,---,0.00,VWS V14.01,2013-01-04 20:46:00,
2013-01-04 15:51:00,54.8,36.1,30.20,WSW,248,0.7,0.8,49,0.00,,---,0.00,VWS V14.01,2013-01-04 20:51:00,
2013-01-04 15:56:00,55.0,35.7,30.20,WNW,292,3.0,3.7,48,0.00,,---,0.00,VWS V14.01,2013-01-04 20:56:00,
2013-01-04 16:02:00,55.0,34.7,30.20,WNW,292,3.6,4.5,46,0.00,,---,0.00,VWS V14.01,2013-01-04 21:02:00,
2013-01-04 16:07:00,54.3,35.1,30.20,West,270,1.2,1.4,48,0.00,,---,0.00,VWS V14.01,2013-01-04 21:07:00,
2013-01-04 16:12:00,54.0,35.2,30.20,WNW,292,1.2,1.4,49,0.00,,---,0.00,VWS V14.01,2013-01-04 21:12:00,
2013-01-04 16:17:00,53.1,34.4,30.19,West,270,1.2,1.8,49,0.00,,---,0.00,VWS V14.01,2013-01-04 21:17:00,
2013-01-04 16:22:00,51.9,33.3,30.19,North,0,1.8,3.7,49,0.00,,---,0.00,VWS V14.01,2013-01-04 21:22:00,
2013-01-04 16:27:00,51.3,33.8,30.19,WNW,292,0.7,0.8,51,0.00,,---,0.00,VWS V14.01,2013-01-04 21:27:00,
2013-01-04 16:32:00,50.8,33.8,30.19,NW,315,0.0,0.4,52,0.00,,---,0.00,VWS V14.01,2013-01-04 21:32:00,
2013-01-04 16:37:00,50.3,33.3,30.19,WNW,292,0.3,0.8,52,0.00,,---,0.00,VWS V14.01,2013-01-04 21:37:00,
2013-01-04 16:42:00,49.9,33.9,30.19,WNW,292,1.2,1.4,54,0.00,,---,0.00,VWS V14.01,2013-01-04 21:42:00,
2013-01-04 16:47:00,49.0,34.0,30.19,WNW,292,0.0,0.0,56,0.00,,---,0.00,VWS V14.01,2013-01-04 21:47:00,
2013-01-04 16:52:00,48.1,34.0,30.18,WNW,292,0.0,0.0,58,0.00,,---,0.00,VWS V14.01,2013-01-04 21:52:00,
2013-01-04 16:57:00,47.4,33.4,30.18,WNW,292,0.0,0.0,58,0.00,,---,0.00,VWS V14.01,2013-01-04 21:57:00,
2013-01-04 17:02:00,46.8,33.7,30.18,WNW,292,0.0,0.0,60,0.00,,---,0.00,VWS V14.01,2013-01-04 22:02:00,
2013-01-04 17:07:00,46.1,33.0,30.18,WNW,292,0.0,0.0,60,0.00,,---,0.00,VWS V14.01,2013-01-04 22:07:00,
2013-01-04 17:12:00,45.8,33.2,30.18,WNW,292,0.0,0.0,61,0.00,,---,0.00,VWS V14.01,2013-01-04 22:12:00,
2013-01-04 17:17:00,45.2,33.0,30.19,WNW,292,0.0,0.0,62,0.00,,---,0.00,VWS V14.01,2013-01-04 22:17:00,
2013-01-04 17:22:00,44.8,32.9,30.19,WNW,292,0.0,0.0,63,0.00,,---,0.00,VWS V14.01,2013-01-04 22:22:00,
2013-01-04 17:27:00,44.2,32.4,30.19,WNW,292,0.0,0.0,63,0.00,,---,0.00,VWS V14.01,2013-01-04 22:27:00,
2013-01-04 17:32:00,43.7,32.3,30.19,WNW,292,0.0,0.0,64,0.00,,---,0.00,VWS V14.01,2013-01-04 22:32:00,
2013-01-04 17:37:00,43.2,32.2,30.19,WNW,292,0.0,0.0,65,0.00,,---,0.00,VWS V14.01,2013-01-04 22:37:00,
2013-01-04 17:42:00,42.6,32.0,30.19,WNW,292,0.0,0.0,66,0.00,,---,0.00,VWS V14.01,2013-01-04 22:42:00,
2013-01-04 17:47:00,42.1,31.9,30.19,WNW,292,0.0,0.0,67,0.00,,---,0.00,VWS V14.01,2013-01-04 22:47:00,
2013-01-04 17:52:00,41.5,31.4,30.20,WNW,292,0.0,0.0,67,0.00,,---,0.00,VWS V14.01,2013-01-04 22:52:00,
2013-01-04 17:57:00,41.0,31.6,30.20,WNW,292,0.0,0.0,69,0.00,,---,0.00,VWS V14.01,2013-01-04 22:57:00,
2013-01-04 18:02:00,40.5,31.1,30.21,WNW,292,0.0,0.0,69,0.00,,---,0.00,VWS V14.01,2013-01-04 23:02:00,
2013-01-04 18:07:00,40.1,31.5,30.21,WNW,292,0.0,0.0,71,0.00,,---,0.00,VWS V14.01,2013-01-04 23:07:00,
2013-01-04 18:12:00,39.7,31.1,30.21,WNW,292,0.0,0.0,71,0.00,,---,0.00,VWS V14.01,2013-01-04 23:12:00,
2013-01-04 18:17:00,39.4,31.1,30.22,WNW,292,0.0,0.0,72,0.00,,---,0.00,VWS V14.01,2013-01-04 23:17:00,
2013-01-04 18:22:00,39.0,31.1,30.22,WNW,292,0.0,0.0,73,0.00,,---,0.00,VWS V14.01,2013-01-04 23:22:00,
2013-01-04 18:27:00,38.8,30.9,30.23,WNW,292,0.0,0.0,73,0.00,,---,0.00,VWS V14.01,2013-01-04 23:27:00,
2013-01-04 18:32:00,38.5,31.0,30.23,WNW,292,0.0,0.0,74,0.00,,---,0.00,VWS V14.01,2013-01-04 23:32:00,
2013-01-04 18:37:00,38.1,30.6,30.23,WNW,292,0.0,0.0,74,0.00,,---,0.00,VWS V14.01,2013-01-04 23:37:00,
2013-01-04 18:42:00,37.9,31.0,30.23,WNW,292,0.0,0.0,76,0.00,,---,0.00,VWS V14.01,2013-01-04 23:42:00,
2013-01-04 18:47:00,37.6,30.8,30.23,WNW,292,0.0,0.0,76,0.00,,---,0.00,VWS V14.01,2013-01-04 23:47:00,
2013-01-04 18:52:00,37.4,31.2,30.23,WNW,292,0.0,0.0,78,0.00,,---,0.00,VWS V14.01,2013-01-04 23:52:00,
2013-01-04 18:57:00,37.2,31.3,30.22,WNW,292,0.0,0.0,79,0.00,,---,0.00,VWS V14.01,2013-01-04 23:57:00,
2013-01-04 19:02:00,37.0,31.4,30.22,WNW,292,0.0,0.0,80,0.00,,---,0.00,VWS V14.01,2013-01-05 00:02:00,
2013-01-04 19:07:00,36.7,30.5,30.22,WNW,292,0.0,0.4,78,0.00,,---,0.00,VWS V14.01,2013-01-05 00:07:00,
2013-01-04 19:12:00,36.5,30.3,30.23,WNW,292,0.0,0.0,78,0.00,,---,0.00,VWS V14.01,2013-01-05 00:12:00,
2013-01-04 19:17:00,36.3,30.1,30.24,WNW,292,0.0,0.0,78,0.00,,---,0.00,VWS V14.01,2013-01-05 00:17:00,
2013-01-04 19:22:00,36.0,29.9,30.24,WNW,292,0.0,0.0,78,0.00,,---,0.00,VWS V14.01,2013-01-05 00:22:00,
2013-01-04 19:27:00,35.8,29.7,30.24,WNW,292,0.0,0.0,78,0.00,,---,0.00,VWS V14.01,2013-01-05 00:27:00,
2013-01-04 19:32:00,35.6,29.8,30.24,WNW,292,0.0,0.0,79,0.00,,---,0.00,VWS V14.01,2013-01-05 00:32:00,
2013-01-04 19:37:00,35.4,29.9,30.25,WNW,292,0.0,0.0,80,0.00,,---,0.00,VWS V14.01,2013-01-05 00:37:00,
2013-01-04 19:42:00,35.2,29.7,30.24,WNW,292,0.0,0.0,80,0.00,,---,0.00,VWS V14.01,2013-01-05 00:42:00,
2013-01-04 19:47:00,35.2,30.3,30.24,WNW,292,0.0,0.0,82,0.00,,---,0.00,VWS V14.01,2013-01-05 00:47:00,
2013-01-04 19:52:00,35.2,30.3,30.24,WNW,292,0.0,0.0,82,0.00,,---,0.00,VWS V14.01,2013-01-05 00:52:00,
2013-01-04 19:57:00,35.2,30.0,30.25,WNW,292,0.0,0.0,81,0.00,,---,0.00,VWS V14.01,2013-01-05 00:57:00,
2013-01-04 20:02:00,35.0,30.6,30.25,WNW,292,0.0,0.0,84,0.00,,---,0.00,VWS V14.01,2013-01-05 01:02:00,
2013-01-04 20:07:00,35.0,30.3,30.25,WNW,292,0.0,0.0,83,0.00,,---,0.00,VWS V14.01,2013-01-05 01:07:00,
2013-01-04 20:12:00,34.8,29.8,30.26,WNW,292,0.0,0.0,82,0.00,,---,0.00,VWS V14.01,2013-01-05 01:12:00,
2013-01-04 20:17:00,34.5,29.6,30.26,WNW,292,0.0,0.0,82,0.00,,---,0.00,VWS V14.01,2013-01-05 01:17:00,
2013-01-04 20:22:00,34.3,29.7,30.26,WNW,292,0.0,0.0,83,0.00,,---,0.00,VWS V14.01,2013-01-05 01:22:00,
2013-01-04 20:27:00,34.2,29.9,30.26,WNW,292,0.0,0.0,84,0.00,,---,0.00,VWS V14.01,2013-01-05 01:27:00,
2013-01-04 20:32:00,34.2,29.9,30.26,WNW,292,0.0,0.0,84,0.00,,---,0.00,VWS V14.01,2013-01-05 01:32:00,
2013-01-04 20:37:00,34.2,29.9,30.26,WNW,292,0.0,0.0,84,0.00,,---,0.00,VWS V14.01,2013-01-05 01:37:00,
2013-01-04 20:42:00,34.3,30.0,30.26,WNW,292,0.0,0.0,84,0.00,,---,0.00,VWS V14.01,2013-01-05 01:42:00,
2013-01-04 20:47:00,34.3,30.0,30.26,WNW,292,0.0,0.0,84,0.00,,---,0.00,VWS V14.01,2013-01-05 01:47:00,
2013-01-04 20:52:00,34.3,30.0,30.26,WNW,292,0.0,0.0,84,0.00,,---,0.00,VWS V14.01,2013-01-05 01:52:00,
2013-01-04 20:57:00,34.3,30.0,30.26,WNW,292,0.0,0.0,84,0.00,,---,0.00,VWS V14.01,2013-01-05 01:57:00,
2013-01-04 21:02:00,34.3,30.0,30.26,WNW,292,0.0,0.0,84,0.00,,---,0.00,VWS V14.01,2013-01-05 02:02:00,
2013-01-04 21:07:00,34.3,30.0,30.26,WNW,292,0.0,0.0,84,0.00,,---,0.00,VWS V14.01,2013-01-05 02:07:00,
2013-01-04 21:12:00,34.2,30.2,30.26,WNW,292,0.0,0.0,85,0.00,,---,0.00,VWS V14.01,2013-01-05 02:12:00,
2013-01-04 21:17:00,34.1,29.7,30.26,WNW,292,0.0,0.0,84,0.00,,---,0.00,VWS V14.01,2013-01-05 02:17:00,
2013-01-04 21:22:00,34.1,30.0,30.26,WNW,292,0.0,0.0,85,0.00,,---,0.00,VWS V14.01,2013-01-05 02:22:00,
2013-01-04 21:27:00,33.9,29.5,30.27,WNW,292,0.0,0.0,84,0.00,,---,0.00,VWS V14.01,2013-01-05 02:27:00,
2013-01-04 21:32:00,33.9,29.5,30.26,WNW,292,0.0,0.0,84,0.00,,---,0.00,VWS V14.01,2013-01-05 02:32:00,
2013-01-04 21:37:00,34.1,30.0,30.27,WNW,292,0.0,0.0,85,0.00,,---,0.00,VWS V14.01,2013-01-05 02:37:00,
2013-01-04 21:42:00,34.2,30.5,30.27,WNW,292,0.0,0.0,86,0.00,,---,0.00,VWS V14.01,2013-01-05 02:42:00,
2013-01-04 21:47:00,34.3,30.3,30.27,WNW,292,0.0,0.0,85,0.00,,---,0.00,VWS V14.01,2013-01-05 02:47:00,
2013-01-04 21:52:00,34.5,30.8,30.27,WNW,292,0.0,0.0,86,0.00,,---,0.00,VWS V14.01,2013-01-05 02:52:00,
2013-01-04 21:57:00,34.8,31.0,30.27,WNW,292,0.0,0.0,86,0.00,,---,0.00,VWS V14.01,2013-01-05 02:57:00,
2013-01-04 22:02:00,35.0,31.2,30.27,WNW,292,0.0,0.0,86,0.00,,---,0.00,VWS V14.01,2013-01-05 03:02:00,
2013-01-04 22:07:00,35.2,31.7,30.27,WNW,292,0.0,0.0,87,0.00,,---,0.00,VWS V14.01,2013-01-05 03:07:00,
2013-01-04 22:12:00,35.2,31.4,30.27,WNW,292,0.0,0.0,86,0.00,,---,0.00,VWS V14.01,2013-01-05 03:12:00,
2013-01-04 22:17:00,35.2,31.4,30.27,WNW,292,0.0,0.0,86,0.00,,---,0.00,VWS V14.01,2013-01-05 03:17:00,
2013-01-04 22:22:00,35.0,31.2,30.27,WNW,292,0.0,0.0,86,0.00,,---,0.00,VWS V14.01,2013-01-05 03:22:00,
2013-01-04 22:27:00,34.5,30.8,30.27,WNW,292,0.0,0.0,86,0.00,,---,0.00,VWS V14.01,2013-01-05 03:27:00,
2013-01-04 22:32:00,34.3,30.6,30.27,WNW,292,0.0,0.0,86,0.00,,---,0.00,VWS V14.01,2013-01-05 03:32:00,
2013-01-04 22:37:00,34.1,30.3,30.27,WNW,292,0.0,0.0,86,0.00,,---,0.00,VWS V14.01,2013-01-05 03:37:00,
2013-01-04 22:42:00,33.9,30.1,30.27,WSW,248,0.0,0.0,86,0.00,,---,0.00,VWS V14.01,2013-01-05 03:42:00,
2013-01-04 22:47:00,33.9,30.1,30.27,WSW,248,0.0,0.0,86,0.00,,---,0.00,VWS V14.01,2013-01-05 03:47:00,
2013-01-04 22:52:00,33.5,29.7,30.27,WSW,248,0.0,0.0,86,0.00,,---,0.00,VWS V14.01,2013-01-05 03:52:00,
2013-01-04 22:57:00,33.2,29.4,30.27,WSW,248,0.0,0.0,86,0.00,,---,0.00,VWS V14.01,2013-01-05 03:57:00,
2013-01-04 23:02:00,33.0,29.2,30.27,WSW,248,0.0,0.0,86,0.00,,---,0.00,VWS V14.01,2013-01-05 04:02:00,
2013-01-04 23:07:00,32.8,29.0,30.27,WSW,248,0.0,0.0,86,0.00,,---,0.00,VWS V14.01,2013-01-05 04:07:00,
2013-01-04 23:12:00,32.6,29.1,30.27,WSW,248,0.0,0.0,87,0.00,,---,0.00,VWS V14.01,2013-01-05 04:12:00,
2013-01-04 23:17:00,32.5,29.0,30.27,WSW,248,0.0,0.0,87,0.00,,---,0.00,VWS V14.01,2013-01-05 04:17:00,
2013-01-04 23:22:00,32.5,29.0,30.27,WSW,248,0.0,0.0,87,0.00,,---,0.00,VWS V14.01,2013-01-05 04:22:00,
2013-01-04 23:27:00,32.1,28.6,30.27,WSW,248,0.0,0.0,87,0.00,,---,0.00,VWS V14.01,2013-01-05 04:27:00,
2013-01-04 23:32:00,31.9,28.5,30.27,WSW,248,0.0,0.0,87,0.00,,---,0.00,VWS V14.01,2013-01-05 04:32:00,
2013-01-04 23:37:00,31.7,28.3,30.27,West,270,0.0,0.4,87,0.00,,---,0.00,VWS V14.01,2013-01-05 04:37:00,
2013-01-04 23:42:00,31.6,28.2,30.27,West,270,0.0,0.0,87,0.00,,---,0.00,VWS V14.01,2013-01-05 04:42:00,
2013-01-04 23:47:00,31.4,28.0,30.27,West,270,0.0,0.0,87,0.00,,---,0.00,VWS V14.01,2013-01-05 04:47:00,
2013-01-04 23:52:00,31.2,27.8,30.27,West,270,0.0,0.0,87,0.00,,---,0.00,VWS V14.01,2013-01-05 04:52:00,
2013-01-04 23:57:00,31.2,28.0,30.27,West,270,0.0,0.0,88,0.00,,---,0.00,VWS V14.01,2013-01-05 04:57:00,